Regional Weather Roundup
Issued by NWS

Home | Current Version | Previous Version | Graphics & Text | Print | Product List | Glossary On
Versions: 1 2 3 4 5 6 7 8 9 10 11 12 13 14 15 16 17 18 19 20 21 22 23 24 25 26 27 28 29 30 31 32 33 34 35 36 37 38 39 40 41 42 43 44 45 46 47 48 49 50
000
ASUS45 KTFX 160804
RWRMT
MONTANA HOURLY WEATHER ROUNDUP
NATIONAL WEATHER SERVICE GREAT FALLS MT
204 AM MDT TUE SEP 16 2014

NOTE: "FAIR" INDICATES FEW OR NO CLOUDS BELOW 12000 FEET WITH NO
SIGNIFICANT WEATHER AND/OR OBSTRUCTIONS TO VISIBILITY.

* THESE STATIONS ARE NOT UNDER NWS QUALITY CONTROL. THEY DO NOT
   REPORT WEATHER SUCH AS PRECIPITATION OR FOG.

MTZ001>007-043-160900-
WEST OF THE DIVIDE
CITY           SKY/WX    TMP DP  RH WIND       PRES   REMARKS
KALISPELL      CLEAR     39  36  89 CALM      30.01S
MISSOULA       CLEAR     54  36  51 E3        30.04R
BUTTE          PTCLDY    43  30  60 SE3       30.17F
MULLAN PASS    PTCLDY    63  25  24 S7        30.14S
* ESSEX        N/A       43  35  73 E2G7       N/A
* LINCOLN      N/A       40  27  60 NW1        N/A
* LOOKOUT PASS N/A       54  30  40 S2         N/A
* POLSON       N/A       54  33  45 E1         N/A
* RONAN APT    CLEAR     45  36  71 N/A        N/A
* SEELEY LAKE  N/A       38  28  67 NE1        N/A
* THOMP F APT  PTCLDY    59  25  27 N3         N/A
$$

MTZ008-052>055-160900-
SOUTHWEST MONTANA
CITY           SKY/WX    TMP DP  RH WIND       PRES   REMARKS
BOZEMAN        CLEAR     43  36  76 SE7       30.12S
DILLON         CLEAR     52  28  40 S9        30.14S
W YELLOWSTONE  PTCLDY    32  25  75 CALM      30.27S
* THREE FORKS  CLEAR     43  37  79 N/A        N/A
* BOULDER HILL N/A       52  27  38 S9         N/A
* MONIDA PASS  N/A       48  26  42 SW1        N/A
* RAYNOLDS PAS N/A       47  33  58 E1         N/A
* WHITEHALL    N/A       45  33  63 SW1        N/A
* WISE RIVER   N/A       45  26  47 SE2        N/A
$$

MTZ009>010-012-014-046-048-049-054-160900-
EAST SLOPES AND CENTRAL MONTANA
CITY           SKY/WX    TMP DP  RH WIND       PRES   REMARKS
CUT BANK       CLEAR     45  36  71 NW8       30.02S
GREAT FALLS    CLEAR     48  37  66 SW10      30.01F
HELENA         CLEAR     52  36  55 CALM      30.07S
MALMSTROM AFB  CLEAR     46  41  83 SW9       30.03S
* CONRAD       CLEAR     39  37  93 N/A        N/A
* EAST GLACIER N/A       49  31  50 NE2        N/A
* MONARCH      N/A       46  25  44 S4G9       N/A
* PENDROY      N/A       51  34  52 N/A        N/A
* ROGERS PASS  N/A       54  29  38 SE2        N/A
* SAINT MARY   N/A       36  32  85 SE4        N/A
* SWEET GRASS  N/A       51  41  69 SW10       N/A
$$

MTZ011-013-016-021-035-040-045-047-050-051-160900-
NORTH CENTRAL MONTANA
CITY           SKY/WX    TMP DP  RH WIND       PRES   REMARKS
HAVRE          CLEAR     46  43  89 CALM      29.99S
LEWISTOWN      CLEAR     45  37  74 SE6       30.06S
* CHESTER      N/A       44  39  83 N2         N/A
* DENTON       N/A       42  40  93 N/A        N/A
* GEYSER       N/A       43  38  83 SW7        N/A
* JUDITH GAP   N/A       46  41  83 SE8        N/A
* LOMA         N/A       51  43  74 NE6        N/A
$$

MTZ017>020-022>027-061-062-160900-
NORTHEAST MONTANA
CITY           SKY/WX    TMP DP  RH WIND       PRES   REMARKS
GLASGOW        CLEAR     48  36  63 E12       30.02F
GLENDIVE       CLEAR     43  36  76 N8        30.05F
JORDAN         CLEAR     41  39  93 CALM      30.03S
SIDNEY         CLEAR     37  34  89 CALM      30.06S
WOLF POINT     CLEAR     39  34  82 CALM      30.04F
* BEAVER HILL  N/A       49  40  71 SE9        N/A
* CIRCLE       N/A       44  38  80 N/A        N/A
* LINDSAY DVD  N/A       49  34  56 NE1        N/A
* NAVAJO       N/A       51  32  48 W8         N/A
* SACO         N/A       52  39  61 E3         N/A
$$

MTZ028>042-056>058-160900-
SOUTHCENTRAL AND SOUTHEAST MONTANA
CITY           SKY/WX    TMP DP  RH WIND       PRES   REMARKS
BAKER          CLEAR     45  43  93 E5        30.06S
BILLINGS       CLEAR     52  45  77 SW10      30.05F
LIVINGSTON     CLEAR     45  34  65 NW6       30.12R
MILES CITY     CLEAR     48  39  71 NE7       30.03S
* LAUREL APT   CLEAR     48  39  71 N/A        N/A
* ROUNDUP APT  CLEAR     48  43  83 SW6        N/A
* ALZADA       N/A       44  42  93 E4         N/A
* HYSHAM       N/A       57  35  44 W7         N/A
* LAME DEER    N/A       58  39  49 SW6        N/A
* REED POINT   N/A       44  42  93 W2         N/A
* ROSCOE HILL  N/A       61  21  21 S12G17     N/A
$$

REGIONAL REPORTS...DAKOTAS
CITY           SKY/WX    TMP DP  RH WIND       PRES   REMARKS
WILLISTON      FOG       36  34  92 CALM      30.05S VSB 3
DICKINSON      CLEAR     45  37  74 S12       30.05S
BEACH          N/A       39  39 100 S3        30.06F
CROSBY         CLEAR     43  37  79 SW9       30.04S
TIOGA          CLEAR     32  32 100 CALM      30.08S
WATFORD CITY   CLEAR     36  32  85 CALM      30.03F
BISMARCK       CLEAR     43  37  79 E3        30.10F
GRAND FORKS    CLEAR     43  37  79 SW6       30.05F
FARGO          CLEAR     48  37  66 SW12      30.12S
BUFFALO SD     CLEAR     48  41  77 SE3       30.00S
RAPID CITY     CLEAR     48  43  83 SE5       30.06F
$$

REGIONAL REPORTS...WYOMING/IDAHO/WASHINGTON
CITY           SKY/WX    TMP DP  RH WIND       PRES   REMARKS
GILLETTE       CLEAR     54  45  72 CALM      30.11S
SHERIDAN       CLEAR     43  39  86 CALM      30.09S
CODY           CLEAR     57  39  51 SW8       30.16S
YELLOWSTONE LA CLEAR     34  28  79 NW3       30.36S
SALMON         PTCLDY    48  36  63 CALM      30.08R
MULLAN PASS    PTCLDY    63  25  24 S7        30.14S
SAND POINT     PTCLDY    43  41  93 CALM      29.97R
SPOKANE        MOCLDY    64  37  37 NE7       29.92S

$$




USA.gov is the U.S. government's official web portal to all federal, state and local government web resources and services.